Location: Arrien
(43.3167°N, 0.1500°W)
Time: 18:07:45
(UTC+00:00)

Cosmos 2082 - Pass Details

Date: 29 May 2022
Orbit: 835 x 853 km, 71.0° (Epoch: 01 July)

Event Time Altitude Azimuth Distance (km) Brightness Sun altitude
Rises 20:52:55 0° 328° (NNW) 3,397 8.7 -12.3°
Reaches altitude 10° 20:55:29 10° 322° (NW) 2,457 7.6 -12.6°
Maximum altitude 21:00:43 41° 254° (WSW) 1,198 4.7 -13.3°
Drops below altitude 10° 21:05:54 10° 185° (S) 2,438 5.7 -13.9°
Enters shadow 21:06:12 - 184° (S) 2,543 5.8 -13.9°
